[[{"header":{"parameterUnit":"m.s-1","parameterCategory":1,"la1":30.2991,"la2":30.254,"lo1":-89.0895,"lo2":-89.0444,"dy":0.0017,"dx":0.0017,"nx":28,"ny":28,"refTime":"2023-08-16T21:00:00:Z","depth":0,"parameterNumber":2,"parameterNumberName":"U-component_of_WINDS"},"data":[0,0,0,0,0,0,0,0,0,0,0,0,0,0,0,0,0,0,0,0,0,0,0,0,0,0,0,0,0,0,0,0,0,0,0,0,0,0,0,0,0,0,0,0,0,0,0,0,0,0,0,0,0,0,0,0,0,0,1.0768,1.0768,0,1.0767,1.0767,1.0767,1.0818,1.0819,1.0821,1.0822,1.082,1.0819,1.0817,0,0,0,0,0,0,0,0,0,0,0,0,0,1.0815,1.0814,1.0768,1.0768,1.0768,1.0767,1.0767,1.0767,1.0818,1.0819,1.0821,1.0822,1.082,1.0819,1.0817,0,0,0,0,0,0,0,0,0,0,0,0,0,1.0802,1.0814,1.0768,1.0793,1.0796,1.0767,1.0767,1.0767,1.0817,1.0819,1.0821,1.0823,1.0821,1.0819,1.0817,1.0764,0,0,1.0811,1.081,0,0,0,0,0,0,0,0,1.0803,1.08,1.079,1.0792,1.0794,1.0795,1.0783,1.0766,1.0817,1.0809,1.0822,1.0824,1.081,1.0809,1.0804,1.0764,1.0764,1.0811,1.081,1.0809,1.0808,0,0,0,0,0,0,0,1.0804,1.0801,1.0768,1.0789,1.0792,1.0805,1.0805,1.078,1.0798,1.081,1.0813,1.0813,1.0811,1.0806,1.0804,1.0764,1.0811,1.0809,1.0808,1.0807,1.0681,1.0678,0,0,0,0,0,0,1.0801,1.0801,1.0768,1.0767,1.0804,1.0802,1.0803,1.0792,1.0798,1.0801,1.0811,1.0815,1.0808,1.0807,1.0805,1.0744,1.0809,1.0807,1.0806,1.0683,1.068,1.0678,0,0,0,0,0,0,1.0802,1.0798,1.0768,1.0785,1.0782,1.0799,1.0787,1.0791,1.0786,1.0799,1.0803,1.0802,1.081,1.0807,1.0774,1.0744,1.0806,1.0804,1.0685,1.0682,1.0679,1.062,0,0,0,0,0,0,1.0803,1.0798,1.0778,1.0784,1.0781,1.0737,1.0785,1.079,1.0782,1.0788,1.0792,1.0794,1.0811,1.0776,1.0772,1.0743,1.0803,1.0688,1.0684,1.068,1.0625,1.0616,1.0607,0,0,0,0,0,1.0805,1.0761,1.0776,1.0772,1.0757,1.0735,1.0733,1.0754,1.078,1.076,1.0768,1.0794,1.0748,1.0773,1.0768,1.0737,1.069,1.0685,1.068,1.0629,1.0617,1.0608,0,0,0,0,0,0,1.075,1.0762,1.0779,1.0737,1.0734,1.0744,1.0719,1.074,1.0731,1.0736,1.0762,1.0762,1.0725,1.0728,1.0755,1.0687,1.0724,1.0717,1.0686,1.0675,1.0667,1.0667,1.0801,0,0,0,0,0,1.0733,1.0714,1.0726,1.0687,1.0685,1.0702,1.0693,1.0709,1.0708,1.0707,1.0714,1.0711,1.0696,1.0686,1.0673,1.0626,1.0628,1.0602,1.0593,1.0586,1.0581,1.0557,1.0546,1.0662,1.0662,1.0662,0,0,1.0697,1.0702,1.0688,1.0676,1.0676,1.0657,1.0701,1.0678,1.0664,1.0704,1.0673,1.0677,1.0676,1.0636,1.0618,1.0637,1.0549,1.058,1.0574,1.0573,1.0551,1.054,1.053,1.0658,1.0659,1.0659,0,0,1.0623,1.0624,1.0592,1.0591,1.0591,1.0603,1.0595,1.0601,1.0606,1.0575,1.0605,1.0588,1.0562,1.056,1.0556,1.0481,1.0505,1.0476,1.043,1.0407,1.0398,1.039,1.0364,1.0354,1.0471,1.0471,1.047,0,1.0579,1.0551,1.0573,1.0549,1.0543,1.0578,1.0546,1.0544,1.054,1.0535,1.0556,1.0524,1.0526,1.0486,1.0468,1.0463,1.0455,1.0476,1.0397,1.0389,1.0382,1.0358,1.0348,1.0467,1.0468,1.0468,1.0468,0,1.0497,1.0477,1.0451,1.0446,1.0437,1.0409,1.0428,1.0416,1.0432,1.0442,1.0411,1.0414,1.0403,1.0394,1.041,1.0357,1.0369,1.0393,1.0431,1.0368,1.0345,1.0336,1.0462,1.0463,1.0464,1.0465,0,0,1.0388,1.0396,1.0387,1.0385,1.0388,1.0373,1.0346,1.0336,1.0325,1.0321,1.03,1.0277,1.0299,1.0294,1.031,1.0289,1.0231,1.0317,1.0317,1.0302,1.0174,1.0156,1.0145,1.0247,1.0245,1.0244,1.0174,0,1.0317,1.0273,1.0292,1.0246,1.0228,1.0262,1.0239,1.0238,1.0246,1.0232,1.0241,1.0225,1.0255,1.0253,1.0234,1.0242,1.0206,1.0248,1.0228,1.0227,1.0228,1.0133,1.0114,1.0049,1.0165,1.0164,1.0163,0,1.0228,1.022,1.0172,1.0179,1.0172,1.0151,1.0143,1.0129,1.0129,1.0137,1.0131,1.0152,1.0127,1.0163,1.0129,1.0157,1.015,1.0153,1.0151,1.0151,1.0192,1.0131,1.0028,1.0019,1.0149,1.015,1.0151,0,1.0155,1.0132,1.0101,1.0099,1.0105,1.009,1.0092,1.0094,1.0086,1.0079,1.0074,1.0064,1.0059,1.005,1.0068,1.0093,1.0032,1.007,1.0038,1.0037,1.0024,1.0025,0.9919,1.0017,1.0018,1.0018,1.0018,0,1.0074,1.0043,1.0069,1.0049,1.0016,1.0039,1.0006,1.0012,1.0013,0.9996,1.0023,1.0006,1.003,1.0016,1.0029,0.9999,0.9996,1.0002,1.0006,1.0,1.0,0.9997,1.0002,1.0015,1.0016,1.0016,1.0017,0,0.9987,1.0002,0.9971,0.9979,0.9981,0.9956,0.9964,0.9947,0.9957,0.9934,0.9931,0.9946,0.9931,0.9947,0.9932,0.9942,0.9902,0.9912,0.9902,0.9905,0.9873,0.9876,0.9762,0.9749,0.9855,0.9854,0.9853,0,0.9934,0.9912,0.9918,0.9909,0.9909,0.9894,0.9886,0.9908,0.9899,0.9897,0.988,0.9867,0.9858,0.9831,0.9841,0.983,0.9841,0.9802,0.984,0.9835,0.9842,0.9843,0.9841,0.9795,0.9793,0.9792,0.9792,0,0.984,0.9849,0.9838,0.9829,0.9819,0.9813,0.9809,0.98,0.9822,0.9811,0.9796,0.9788,0.9774,0.976,0.9752,0.9755,0.9777,0.9779,0.9772,0.9766,0.9761,0.9764,0.9882,0.9782,0.9783,0.9784,0.9784,0.9785,0.977,0.9752,0.9754,0.974,0.974,0.9735,0.972,0.9728,0.9716,0.9706,0.9719,0.97,0.9701,0.9693,0.9692,0.9678,0.9694,0.9683,0.968,0.9677,0.9673,0.9763,0.9676,0.9676,0.9677,0.9677,0.9677,0,0.9678,0.9681,0.9668,0.9662,0.9651,0.9673,0.967,0.966,0.9643,0.9642,0.9632,0.9615,0.9602,0.9611,0.9601,0.9587,0.9597,0.9584,0.9586,0.9586,0.9658,0.9666,0.9576,0.9576,0.9576,0.9576,0.9576,0.9576,0.9629,0.96,0.9609,0.958,0.9584,0.9566,0.9562,0.9558,0.9558,0.9537,0.9527,0.9533,0.9536,0.9526,0.9515,0.9518,0.9514,0.9497,0.9503,0.9571,0.9581,0.959,0.9598,0.9495,0.9495,0.9433,0.9432,0.9432]},{"header":{"parameterUnit":"m.s-1","parameterCategory":1,"la1":30.2991,"la2":30.254,"lo1":-89.0895,"lo2":-89.0444,"dy":0.0017,"dx":0.0017,"nx":28,"ny":28,"refTime":"2023-08-16T21:00:00:Z","depth":0,"parameterNumber":3,"parameterNumberName":"V-component_of_WINDS"},"data":[0,0,0,0,0,0,0,0,0,0,0,0,0,0,0,0,0,0,0,0,0,0,0,0,0,0,0,0,0,0,0,0,0,0,0,0,0,0,0,0,0,0,0,0,0,0,0,0,0,0,0,0,0,0,0,0,0,0,2.4151,2.4151,0,2.4127,2.4127,2.4127,2.4138,2.4139,2.4139,2.414,2.4113,2.4111,2.411,0,0,0,0,0,0,0,0,0,0,0,0,0,2.4204,2.4203,2.4151,2.4151,2.4151,2.4127,2.4127,2.4127,2.4138,2.4139,2.4139,2.414,2.4113,2.4112,2.411,0,0,0,0,0,0,0,0,0,0,0,0,0,2.418,2.4202,2.4151,2.4154,2.4154,2.4127,2.4127,2.4127,2.4138,2.4139,2.414,2.414,2.4114,2.4112,2.411,2.4079,0,0,2.4104,2.4103,0,0,0,0,0,0,0,0,2.4182,2.4178,2.4154,2.4153,2.4153,2.4137,2.4135,2.4111,2.4138,2.4144,2.414,2.4141,2.412,2.4117,2.4111,2.4078,2.4077,2.4104,2.4102,2.4102,2.4101,0,0,0,0,0,0,0,2.4183,2.4179,2.4142,2.4153,2.4153,2.4155,2.4152,2.4131,2.4127,2.4143,2.4144,2.4141,2.412,2.4113,2.411,2.4076,2.4104,2.4102,2.4101,2.41,2.4015,2.4014,0,0,0,0,0,0,2.4185,2.4181,2.4143,2.4141,2.417,2.4153,2.415,2.4141,2.4127,2.4126,2.414,2.4142,2.4115,2.4112,2.4109,2.407,2.4102,2.41,2.4099,2.4016,2.4014,2.4013,0,0,0,0,0,0,2.4186,2.4182,2.4143,2.4161,2.4156,2.4151,2.414,2.414,2.4133,2.4125,2.4124,2.4134,2.4116,2.4112,2.4086,2.407,2.4099,2.4097,2.4017,2.4015,2.4014,2.3994,0,0,0,0,0,0,2.4188,2.4182,2.4171,2.4161,2.4155,2.4122,2.414,2.4139,2.413,2.4131,2.4119,2.4117,2.4116,2.4089,2.4084,2.4068,2.4096,2.4018,2.4016,2.4014,2.3996,2.3992,2.3988,0,0,0,0,0,2.419,2.4167,2.4171,2.4166,2.4142,2.4121,2.4118,2.4118,2.4129,2.4117,2.4111,2.4118,2.4073,2.4086,2.4081,2.4064,2.4019,2.4017,2.4015,2.3998,2.3993,2.3988,0,0,0,0,0,0,2.4175,2.4165,2.417,2.4143,2.4133,2.4123,2.4108,2.4113,2.4099,2.4101,2.4101,2.4098,2.4071,2.4065,2.408,2.4032,2.4047,2.4044,2.4037,2.4032,2.4028,2.4029,2.4094,0,0,0,0,0,2.4169,2.4153,2.4146,2.4123,2.4117,2.4114,2.4105,2.4106,2.4095,2.409,2.4083,2.4071,2.4054,2.4043,2.4027,2.3996,2.3992,2.3981,2.3977,2.3974,2.397,2.3951,2.3945,2.4005,2.4005,2.4005,0,0,2.4155,2.4148,2.4138,2.4119,2.4112,2.4094,2.411,2.4091,2.4078,2.4087,2.4062,2.4056,2.4043,2.4014,2.4,2.4008,2.3953,2.3971,2.3968,2.3966,2.3947,2.3942,2.3937,2.4003,2.4004,2.4004,0,0,2.4121,2.4116,2.4095,2.4087,2.4075,2.4072,2.4067,2.4056,2.4053,2.4028,2.4034,2.4017,2.3989,2.3978,2.3969,2.393,2.3935,2.3925,2.3904,2.3885,2.388,2.3876,2.386,2.3854,2.3922,2.3922,2.3922,0,2.4106,2.4081,2.4083,2.4064,2.4054,2.4062,2.404,2.4032,2.4015,2.4007,2.4016,2.3979,2.3971,2.3938,2.3929,2.3922,2.3914,2.3926,2.3881,2.3877,2.3873,2.3857,2.3851,2.3921,2.3921,2.3921,2.3921,0,2.4061,2.4044,2.4028,2.4012,2.4001,2.398,2.3978,2.3966,2.3968,2.3964,2.3937,2.3928,2.3909,2.3902,2.3903,2.3868,2.3873,2.3882,2.3897,2.3866,2.3851,2.3845,2.3919,2.3919,2.392,2.392,0,0,2.4017,2.4002,2.3996,2.3987,2.3975,2.396,2.3939,2.3921,2.391,2.3898,2.3879,2.3854,2.3861,2.3851,2.3852,2.3835,2.3802,2.3846,2.3845,2.3836,2.3759,2.3751,2.3744,2.3805,2.3804,2.3803,2.376,0,2.3981,2.3944,2.3945,2.3911,2.3893,2.39,2.3881,2.387,2.3866,2.3849,2.3845,2.3826,2.3838,2.3832,2.3816,2.3809,2.3786,2.3813,2.3785,2.3784,2.3786,2.3737,2.3729,2.3688,2.3754,2.3753,2.3753,0,2.3933,2.392,2.3883,2.3871,2.3864,2.3847,2.383,2.3815,2.3802,2.3799,2.3787,2.379,2.3767,2.3784,2.375,2.3768,2.3757,2.3752,2.375,2.3746,2.3765,2.3729,2.3675,2.3668,2.3744,2.3745,2.3745,0,2.3901,2.3874,2.3848,2.3841,2.3827,2.3815,2.3808,2.3796,2.3785,2.377,2.3762,2.3744,2.3733,2.3718,2.3715,2.3729,2.3681,2.3698,2.3676,2.3676,2.3664,2.3664,2.3605,2.3661,2.3661,2.3661,2.3661,0,2.3859,2.3836,2.3834,2.3817,2.3791,2.3792,2.3765,2.376,2.3749,2.373,2.3736,2.3718,2.3716,2.3698,2.3695,2.3666,2.3662,2.3658,2.3657,2.3656,2.3656,2.3647,2.3649,2.3659,2.366,2.366,2.366,0,2.3819,2.3816,2.3788,2.3777,2.3773,2.3754,2.3744,2.3728,2.3724,2.37,2.3695,2.3688,2.3666,2.3662,2.3637,2.3635,2.3599,2.3603,2.3603,2.3603,2.358,2.3581,2.3511,2.3501,2.3565,2.3565,2.3564,0,2.3791,2.3773,2.376,2.3748,2.3741,2.3722,2.371,2.371,2.3697,2.3681,2.3666,2.3645,2.3627,2.3592,2.3584,2.3563,2.3564,2.3541,2.3561,2.356,2.3561,2.3561,2.3558,2.3537,2.3536,2.3535,2.3535,0,2.374,2.374,2.3723,2.3706,2.3692,2.3678,2.3664,2.3654,2.3652,2.3637,2.3615,2.3602,2.3575,2.3553,2.3532,2.3524,2.3528,2.3529,2.3522,2.352,2.352,2.3517,2.359,2.353,2.3531,2.3531,2.3531,2.3531,2.3704,2.3687,2.3675,2.3656,2.3646,2.3633,2.3616,2.361,2.3592,2.3571,2.3572,2.3547,2.3532,2.3505,2.3495,2.3475,2.3482,2.3473,2.347,2.3467,2.3464,2.3525,2.3471,2.3471,2.3472,2.3472,2.3472,0,2.3651,2.3644,2.3626,2.3607,2.3591,2.3598,2.3584,2.3569,2.3547,2.3534,2.3517,2.3491,2.3469,2.3459,2.3437,2.3422,2.3423,2.3416,2.3416,2.3413,2.346,2.3467,2.3416,2.3416,2.3416,2.3416,2.3416,2.3416,2.3622,2.3594,2.3592,2.3558,2.3551,2.3527,2.3517,2.3505,2.3494,2.3464,2.3446,2.344,2.3428,2.3405,2.3384,2.3382,2.3372,2.3364,2.3362,2.3405,2.3411,2.3416,2.3422,2.3362,2.3362,2.3317,2.3316,2.3316]}]]